Time,TemperatureF,DewpointF,PressureIn,WindDirection,WindDirectionDegrees,WindSpeedMPH,WindSpeedGustMPH,Humidity,HourlyPrecipIn,Conditions,Clouds,dailyrainin,SoftwareType,DateUTC
2013-04-23 00:09:00,33.8,31.0,30.60,ESE,117,0.0,4.0,88,0.00,,,0.00,weatherlink.com 1.10,2013-04-23 04:09:00,
2013-04-23 00:24:00,32.8,30.0,30.60,East,90,0.0,1.0,89,0.00,,,0.00,weatherlink.com 1.10,2013-04-23 04:24:00,
2013-04-23 00:39:00,31.5,29.0,30.60,North,11,0.0,1.0,90,0.00,,,0.00,weatherlink.com 1.10,2013-04-23 04:39:00,
2013-04-23 00:54:00,30.9,29.0,30.59,NE,34,0.0,1.0,92,0.00,,,0.00,weatherlink.com 1.10,2013-04-23 04:54:00,
2013-04-23 01:09:00,30.0,28.0,30.59,NE,34,0.0,0.0,92,0.00,,,0.00,weatherlink.com 1.10,2013-04-23 05:09:00,
2013-04-23 01:24:00,29.8,28.0,30.59,NE,34,0.0,0.0,94,0.00,,,0.00,weatherlink.com 1.10,2013-04-23 05:24:00,
2013-04-23 01:39:00,30.4,29.0,30.57,South,174,0.0,1.0,94,0.00,,,0.00,weatherlink.com 1.10,2013-04-23 05:39:00,
2013-04-23 01:54:00,31.2,30.0,30.57,SE,138,1.0,1.0,94,0.00,,,0.00,weatherlink.com 1.10,2013-04-23 05:54:00,
2013-04-23 02:09:00,32.1,30.0,30.57,East,83,0.0,2.0,92,0.00,,,0.00,weatherlink.com 1.10,2013-04-23 06:09:00,
2013-04-23 02:24:00,32.3,30.0,30.56,ENE,77,0.0,0.0,90,0.00,,,0.00,weatherlink.com 1.10,2013-04-23 06:24:00,
2013-04-23 02:39:00,32.4,30.0,30.55,East,86,0.0,0.0,90,0.00,,,0.00,weatherlink.com 1.10,2013-04-23 06:39:00,
2013-04-23 02:54:00,32.6,30.0,30.55,NNE,26,0.0,1.0,89,0.00,,,0.00,weatherlink.com 1.10,2013-04-23 06:54:00,
2013-04-23 03:09:00,32.6,30.0,30.54,NNE,13,0.0,3.0,89,0.00,,,0.00,weatherlink.com 1.10,2013-04-23 07:09:00,
2013-04-23 03:24:00,32.7,30.0,30.54,NE,46,0.0,2.0,89,0.00,,,0.00,weatherlink.com 1.10,2013-04-23 07:24:00,
2013-04-23 03:39:00,32.8,30.0,30.53,North,352,1.0,2.0,88,0.00,,,0.00,weatherlink.com 1.10,2013-04-23 07:39:00,
2013-04-23 03:54:00,33.1,30.0,30.52,North,8,2.0,4.0,88,0.00,,,0.00,weatherlink.com 1.10,2013-04-23 07:54:00,
2013-04-23 04:09:00,33.1,30.0,30.52,NNE,22,0.0,2.0,87,0.00,,,0.00,weatherlink.com 1.10,2013-04-23 08:09:00,
2013-04-23 04:24:00,33.3,30.0,30.52,North,356,1.0,4.0,87,0.00,,,0.00,weatherlink.com 1.10,2013-04-23 08:24:00,
2013-04-23 04:39:00,33.2,30.0,30.52,NW,305,2.0,2.0,87,0.00,,,0.00,weatherlink.com 1.10,2013-04-23 08:39:00,
2013-04-23 04:54:00,33.0,30.0,30.51,WNW,292,0.0,1.0,88,0.00,,,0.00,weatherlink.com 1.10,2013-04-23 08:54:00,
2013-04-23 05:09:00,32.8,30.0,30.51,East,89,0.0,4.0,88,0.00,,,0.00,weatherlink.com 1.10,2013-04-23 09:09:00,
2013-04-23 05:24:00,32.9,30.0,30.50,NNE,23,0.0,2.0,88,0.00,,,0.00,weatherlink.com 1.10,2013-04-23 09:24:00,
2013-04-23 05:39:00,33.0,30.0,30.51,ENE,67,0.0,3.0,88,0.00,,,0.00,weatherlink.com 1.10,2013-04-23 09:39:00,
2013-04-23 05:54:00,32.9,30.0,30.51,WNW,286,0.0,2.0,87,0.00,,,0.00,weatherlink.com 1.10,2013-04-23 09:54:00,
2013-04-23 06:09:00,32.9,30.0,30.51,NE,37,0.0,3.0,87,0.00,,,0.00,weatherlink.com 1.10,2013-04-23 10:09:00,
2013-04-23 06:24:00,33.0,30.0,30.50,SE,135,0.0,3.0,88,0.00,,,0.00,weatherlink.com 1.10,2013-04-23 10:24:00,
2013-04-23 06:40:00,33.0,30.0,30.50,ESE,111,0.0,3.0,88,0.00,,,0.00,weatherlink.com 1.10,2013-04-23 10:40:00,
2013-04-23 06:55:00,33.2,30.0,30.50,West,276,0.0,3.0,88,0.00,,,0.00,weatherlink.com 1.10,2013-04-23 10:55:00,
2013-04-23 07:10:00,33.2,30.0,30.50,NE,43,1.0,3.0,89,0.00,,,0.00,weatherlink.com 1.10,2013-04-23 11:10:00,
2013-04-23 07:25:00,33.2,31.0,30.50,NW,310,0.0,3.0,90,0.00,,,0.00,weatherlink.com 1.10,2013-04-23 11:25:00,
2013-04-23 07:40:00,33.0,31.0,30.50,North,359,0.0,3.0,91,0.00,,,0.00,weatherlink.com 1.10,2013-04-23 11:40:00,
2013-04-23 07:56:00,32.8,31.0,30.50,East,101,2.0,4.0,93,0.00,,,0.00,weatherlink.com 1.10,2013-04-23 11:56:00,
2013-04-23 08:10:00,33.0,32.0,30.50,North,1,0.0,4.0,94,0.00,,,0.00,weatherlink.com 1.10,2013-04-23 12:10:00,
2013-04-23 08:25:00,32.9,31.0,30.49,NNE,13,3.0,4.0,94,0.00,,,0.00,weatherlink.com 1.10,2013-04-23 12:25:00,
2013-04-23 08:40:00,33.0,32.0,30.49,East,89,0.0,3.0,95,0.00,,,0.00,weatherlink.com 1.10,2013-04-23 12:40:00,
2013-04-23 08:55:00,33.1,32.0,30.49,East,88,1.0,3.0,95,0.00,,,0.00,weatherlink.com 1.10,2013-04-23 12:55:00,
2013-04-23 09:10:00,33.2,32.0,30.48,East,79,0.0,3.0,95,0.00,,,0.00,weatherlink.com 1.10,2013-04-23 13:10:00,
2013-04-23 09:25:00,33.5,32.0,30.48,NNE,30,0.0,3.0,95,0.00,,,0.00,weatherlink.com 1.10,2013-04-23 13:25:00,
2013-04-23 09:40:00,33.6,32.0,30.47,ESE,108,1.0,5.0,95,0.00,,,0.00,weatherlink.com 1.10,2013-04-23 13:40:00,
2013-04-23 09:55:00,33.8,33.0,30.47,West,262,0.0,6.0,95,0.00,,,0.00,weatherlink.com 1.10,2013-04-23 13:55:00,
2013-04-23 10:10:00,34.2,33.0,30.46,ENE,77,1.0,3.0,96,0.00,,,0.00,weatherlink.com 1.10,2013-04-23 14:10:00,
2013-04-23 10:25:00,34.6,34.0,30.46,NW,314,1.0,3.0,96,0.00,,,0.00,weatherlink.com 1.10,2013-04-23 14:25:00,
2013-04-23 10:40:00,34.7,34.0,30.46,ENE,63,1.0,3.0,95,0.00,,,0.00,weatherlink.com 1.10,2013-04-23 14:40:00,
2013-04-23 10:55:00,35.0,34.0,30.47,SSW,210,0.0,4.0,96,0.00,,,0.00,weatherlink.com 1.10,2013-04-23 14:55:00,
2013-04-23 11:10:00,35.3,34.0,30.46,North,4,0.0,6.0,96,0.00,,,0.00,weatherlink.com 1.10,2013-04-23 15:10:00,
2013-04-23 11:25:00,35.5,35.0,30.45,ENE,63,0.0,8.0,96,0.01,,,0.01,weatherlink.com 1.10,2013-04-23 15:25:00,
2013-04-23 11:40:00,35.7,35.0,30.45,NNE,13,0.0,6.0,96,0.01,,,0.01,weatherlink.com 1.10,2013-04-23 15:40:00,
2013-04-23 11:55:00,36.0,35.0,30.45,NNW,328,0.0,7.0,96,0.01,,,0.01,weatherlink.com 1.10,2013-04-23 15:55:00,
2013-04-23 12:10:00,36.2,35.0,30.44,NNW,340,0.0,7.0,95,0.01,,,0.01,weatherlink.com 1.10,2013-04-23 16:10:00,
2013-04-23 12:25:00,36.3,35.0,30.43,NNW,333,1.0,6.0,95,0.00,,,0.01,weatherlink.com 1.10,2013-04-23 16:25:00,
2013-04-23 12:40:00,36.5,35.0,30.43,WSW,256,2.0,5.0,95,0.00,,,0.01,weatherlink.com 1.10,2013-04-23 16:40:00,
2013-04-23 12:55:00,36.7,35.0,30.42,East,88,6.0,7.0,95,0.00,,,0.01,weatherlink.com 1.10,2013-04-23 16:55:00,
2013-04-23 13:10:00,36.7,35.0,30.42,ENE,63,6.0,9.0,95,0.00,,,0.01,weatherlink.com 1.10,2013-04-23 17:10:00,
2013-04-23 13:25:00,36.7,35.0,30.41,North,8,1.0,8.0,95,0.00,,,0.01,weatherlink.com 1.10,2013-04-23 17:25:00,
2013-04-23 13:40:00,36.8,36.0,30.40,ENE,70,1.0,6.0,95,0.00,,,0.01,weatherlink.com 1.10,2013-04-23 17:40:00,
2013-04-23 13:55:00,36.8,36.0,30.39,North,1,2.0,8.0,95,0.00,,,0.01,weatherlink.com 1.10,2013-04-23 17:55:00,
2013-04-23 14:10:00,36.9,36.0,30.39,NNW,328,3.0,7.0,95,0.00,,,0.01,weatherlink.com 1.10,2013-04-23 18:10:00,
2013-04-23 14:25:00,36.9,36.0,30.38,SE,125,5.0,6.0,95,0.00,,,0.01,weatherlink.com 1.10,2013-04-23 18:25:00,
2013-04-23 14:40:00,36.9,36.0,30.38,ENE,67,2.0,6.0,95,0.00,,,0.01,weatherlink.com 1.10,2013-04-23 18:40:00,
2013-04-23 14:55:00,36.9,36.0,30.37,SSW,205,2.0,6.0,96,0.00,,,0.01,weatherlink.com 1.10,2013-04-23 18:55:00,
2013-04-23 15:10:00,37.1,36.0,30.36,NW,323,2.0,10.0,96,0.00,,,0.01,weatherlink.com 1.10,2013-04-23 19:10:00,
2013-04-23 15:25:00,37.1,36.0,30.36,NW,312,2.0,7.0,96,0.00,,,0.01,weatherlink.com 1.10,2013-04-23 19:25:00,
2013-04-23 15:40:00,37.0,36.0,30.35,South,187,2.0,8.0,96,0.00,,,0.01,weatherlink.com 1.10,2013-04-23 19:40:00,
2013-04-23 15:55:00,37.1,36.0,30.35,ESE,118,1.0,5.0,96,0.00,,,0.01,weatherlink.com 1.10,2013-04-23 19:55:00,
2013-04-23 16:11:00,37.2,36.0,30.34,ENE,74,2.0,5.0,96,0.00,,,0.01,weatherlink.com 1.10,2013-04-23 20:11:00,
2013-04-23 16:26:00,37.2,36.0,30.34,NNW,347,1.0,4.0,96,0.00,,,0.01,weatherlink.com 1.10,2013-04-23 20:26:00,
2013-04-23 16:41:00,37.4,36.0,30.34,ENE,72,2.0,5.0,96,0.00,,,0.01,weatherlink.com 1.10,2013-04-23 20:41:00,
2013-04-23 16:56:00,37.3,36.0,30.34,ENE,72,6.0,7.0,96,0.00,,,0.01,weatherlink.com 1.10,2013-04-23 20:56:00,
2013-04-23 17:11:00,37.3,36.0,30.33,NE,35,0.0,6.0,96,0.00,,,0.01,weatherlink.com 1.10,2013-04-23 21:11:00,
2013-04-23 17:26:00,37.3,36.0,30.32,ENE,65,0.0,7.0,96,0.00,,,0.01,weatherlink.com 1.10,2013-04-23 21:26:00,
2013-04-23 17:41:00,37.4,36.0,30.32,NE,44,2.0,7.0,96,0.00,,,0.01,weatherlink.com 1.10,2013-04-23 21:41:00,
2013-04-23 17:56:00,37.5,37.0,30.31,East,82,1.0,4.0,97,0.00,,,0.01,weatherlink.com 1.10,2013-04-23 21:56:00,
2013-04-23 18:11:00,37.5,37.0,30.30,North,355,2.0,4.0,97,0.00,,,0.01,weatherlink.com 1.10,2013-04-23 22:11:00,
2013-04-23 18:26:00,37.5,37.0,30.30,NNE,15,0.0,5.0,97,0.00,,,0.01,weatherlink.com 1.10,2013-04-23 22:26:00,
2013-04-23 18:41:00,37.5,37.0,30.29,ESE,110,0.0,5.0,97,0.00,,,0.01,weatherlink.com 1.10,2013-04-23 22:41:00,
2013-04-23 18:56:00,37.4,37.0,30.29,NNE,22,4.0,5.0,97,0.00,,,0.01,weatherlink.com 1.10,2013-04-23 22:56:00,
2013-04-23 19:11:00,37.4,37.0,30.28,ENE,67,0.0,5.0,97,0.00,,,0.01,weatherlink.com 1.10,2013-04-23 23:11:00,
2013-04-23 19:26:00,37.3,37.0,30.28,NNW,345,1.0,7.0,97,0.00,,,0.01,weatherlink.com 1.10,2013-04-23 23:26:00,
2013-04-23 19:41:00,37.3,37.0,30.27,North,352,5.0,6.0,97,0.00,,,0.01,weatherlink.com 1.10,2013-04-23 23:41:00,
2013-04-23 19:56:00,37.3,37.0,30.26,NE,52,0.0,3.0,97,0.00,,,0.01,weatherlink.com 1.10,2013-04-23 23:56:00,
2013-04-23 20:11:00,37.2,37.0,30.25,NNE,16,0.0,3.0,97,0.00,,,0.01,weatherlink.com 1.10,2013-04-24 00:11:00,
2013-04-23 20:26:00,37.3,37.0,30.26,North,9,5.0,5.0,97,0.00,,,0.01,weatherlink.com 1.10,2013-04-24 00:26:00,
2013-04-23 20:41:00,37.2,37.0,30.26,ENE,60,0.0,6.0,97,0.00,,,0.01,weatherlink.com 1.10,2013-04-24 00:41:00,
2013-04-23 20:56:00,37.2,37.0,30.26,East,81,1.0,6.0,97,0.00,,,0.01,weatherlink.com 1.10,2013-04-24 00:56:00,
2013-04-23 21:11:00,37.2,37.0,30.25,NE,39,0.0,4.0,97,0.00,,,0.01,weatherlink.com 1.10,2013-04-24 01:11:00,
2013-04-23 21:26:00,37.1,36.0,30.24,NE,51,1.0,4.0,97,0.00,,,0.01,weatherlink.com 1.10,2013-04-24 01:26:00,
2013-04-23 21:41:00,37.1,36.0,30.24,NNW,343,1.0,2.0,97,0.00,,,0.01,weatherlink.com 1.10,2013-04-24 01:41:00,
2013-04-23 21:56:00,37.2,37.0,30.23,NNE,30,2.0,7.0,97,0.00,,,0.01,weatherlink.com 1.10,2013-04-24 01:56:00,
2013-04-23 22:11:00,37.3,37.0,30.23,NNW,335,1.0,7.0,97,0.00,,,0.01,weatherlink.com 1.10,2013-04-24 02:11:00,
2013-04-23 22:56:00,37.6,37.0,30.21,West,281,0.0,5.0,98,0.01,,,0.02,weatherlink.com 1.10,2013-04-24 02:56:00,
2013-04-23 23:26:00,37.8,37.0,30.18,West,276,1.0,7.0,97,0.00,,,0.02,weatherlink.com 1.10,2013-04-24 03:26:00,
2013-04-23 23:41:00,37.8,37.0,30.17,North,349,0.0,7.0,97,0.00,,,0.02,weatherlink.com 1.10,2013-04-24 03:41:00,
2013-04-23 23:56:00,37.9,37.0,30.16,WSW,243,0.0,4.0,97,0.00,,,0.02,weatherlink.com 1.10,2013-04-24 03:56:00,